Date String (YYYY-MM-DD hh:mm:ss) UTC,Instrument flags,Ambient pressure (hPa),Sample flow (lpm),Bypass flow (lpm),Sample temperature (°C),Ambient temperature (°C),ASC tube jacket temperature (°C),LED temperature (°C),Box temperature (°C),Sample RH (%),Span deviation,Mass concentration (μg/m³),Mass concentration (μg/m³),Mass concentration (μg/m³)
DateTimeUTC,F1_M11,P_M11,Q1_M11,Q2_M11,T1_M11,T2_M11,T3_M11,T4_M11,T5_M11,U1_M11,ZSPAN_M11,X0_M11,X2_M11,X1_M11
2022-02-08 22:00:00,,0829.0,5.00,0.00,25.3,24.8,00.0,34.3,27.2,07.1,0000.0,0009.74,0002.83,0001.93
2022-02-08 22:01:00,,0829.0,4.99,0.00,25.4,24.8,00.0,34.3,27.2,06.9,0000.0,0009.21,0002.72,0001.86
2022-02-08 22:02:00,,0829.0,5.01,0.00,25.4,24.8,00.0,34.3,27.1,07.0,0000.0,0008.37,0002.60,0001.78
2022-02-08 22:03:00,,0829.0,4.99,0.00,25.4,24.8,00.0,34.3,27.2,06.8,0000.0,0008.17,0002.49,0001.71
2022-02-08 22:04:00,,0829.0,5.01,0.00,25.4,24.8,00.0,34.3,27.2,06.5,0000.0,0006.97,0002.42,0001.65
2022-02-08 22:05:00,,0829.0,5.00,0.00,25.4,24.8,00.0,34.3,27.2,06.7,0000.0,0006.76,0002.36,0001.61
2022-02-08 22:06:00,,0829.0,4.99,0.00,25.4,24.8,00.0,34.4,27.2,06.8,0000.0,0006.60,0002.35,0001.58
2022-02-08 22:07:00,,0829.0,4.99,0.00,25.4,24.8,00.0,34.4,27.2,06.3,0000.0,0005.49,0002.32,0001.55
2022-02-08 22:08:00,,0828.9,5.00,0.00,25.4,24.8,00.0,34.4,27.2,06.3,0000.0,0004.56,0002.24,0001.49
2022-02-08 22:09:00,,0828.9,4.99,0.00,25.4,24.9,00.0,34.4,27.2,06.3,0000.0,0003.67,0002.12,0001.43
2022-02-08 22:10:00,,0829.0,5.01,0.00,25.4,24.9,00.0,34.4,27.2,06.2,0000.0,0003.56,0002.01,0001.38
2022-02-08 22:11:00,,0829.0,5.00,0.00,25.4,24.9,00.0,34.4,27.2,06.8,0000.0,0004.97,0001.94,0001.35
2022-02-08 22:12:00,,0828.9,4.99,0.00,25.4,24.9,00.0,34.4,27.3,06.7,0000.0,0004.95,0001.92,0001.34
2022-02-08 22:13:00,,0828.9,5.00,0.00,25.5,24.9,00.0,34.4,27.3,06.6,0000.0,0004.92,0001.91,0001.34
2022-02-08 22:14:00,,0828.8,4.99,0.00,25.5,24.9,00.0,34.4,27.3,06.2,0000.0,0004.90,0001.91,0001.33
2022-02-08 22:15:00,,0828.9,5.01,0.00,25.5,25.0,00.0,34.4,27.3,06.4,0000.0,0004.75,0001.85,0001.31
2022-02-08 22:16:00,,0828.9,5.01,0.00,25.5,25.0,00.0,34.4,27.4,06.4,0000.0,0004.81,0001.85,0001.30
2022-02-08 22:17:00,,0828.9,5.00,0.00,25.5,25.0,00.0,34.4,27.4,06.1,0000.0,0004.66,0001.80,0001.27
2022-02-08 22:18:00,,0828.9,5.01,0.00,25.5,25.0,00.0,34.4,27.4,06.0,0000.0,0004.61,0001.76,0001.26
2022-02-08 22:19:00,,0829.2,5.00,0.00,25.5,25.0,00.0,34.4,27.4,05.8,0000.0,0004.60,0001.76,0001.25
2022-02-08 22:20:00,,0829.1,5.00,0.00,25.6,25.0,00.0,34.4,27.4,06.1,0000.0,0004.74,0001.81,0001.26
2022-02-08 22:21:00,,0828.7,5.00,0.00,25.6,25.1,00.0,34.4,27.4,05.7,0000.0,0004.60,0001.77,0001.26
2022-02-08 22:22:00,,0828.7,5.01,0.00,25.6,25.1,00.0,34.5,27.4,05.9,0000.0,0003.07,0001.76,0001.25
2022-02-08 22:23:00,,0828.8,5.00,0.00,25.6,25.1,00.0,34.5,27.4,05.9,0000.0,0003.62,0001.75,0001.25
2022-02-08 22:24:00,,0829.3,4.99,0.00,25.6,25.1,00.0,34.5,27.5,05.8,0000.0,0003.61,0001.76,0001.24
2022-02-08 22:25:00,,0829.3,5.01,0.00,25.6,25.1,00.0,34.5,27.5,06.0,0000.0,0003.58,0001.74,0001.24
2022-02-08 22:26:00,,0829.3,4.99,0.00,25.6,25.1,00.0,34.5,27.5,06.1,0000.0,0003.77,0001.78,0001.25
2022-02-08 22:27:00,,0829.3,5.00,0.00,25.6,25.1,00.0,34.5,27.5,06.1,0000.0,0003.97,0001.82,0001.26
2022-02-08 22:28:00,,0829.0,4.99,0.00,25.6,25.1,00.0,34.5,27.5,06.3,0000.0,0003.93,0001.79,0001.27
2022-02-08 22:29:00,,0828.7,5.01,0.00,25.7,25.1,00.0,34.5,27.5,06.3,0000.0,0004.01,0001.82,0001.28
2022-02-08 22:30:00,,0829.1,4.99,0.00,25.7,25.1,00.0,34.6,27.5,06.3,0000.0,0004.07,0001.86,0001.30
2022-02-08 22:31:00,,0829.0,5.01,0.00,25.7,25.2,00.0,34.6,27.5,06.3,0000.0,0005.30,0001.88,0001.31
2022-02-08 22:32:00,,0828.9,5.01,0.00,25.7,25.2,00.0,34.6,27.5,06.2,0000.0,0005.37,0001.90,0001.32
2022-02-08 22:33:00,,0829.0,5.00,0.00,25.7,25.2,00.0,34.6,27.5,06.3,0000.0,0005.48,0001.93,0001.34
2022-02-08 22:34:00,,0829.2,4.99,0.00,25.7,25.2,00.0,34.6,27.6,06.1,0000.0,0006.12,0001.93,0001.35
2022-02-08 22:35:00,,0828.7,5.00,0.00,25.7,25.2,00.0,34.6,27.5,06.0,0000.0,0006.51,0001.93,0001.36
2022-02-08 22:36:00,,0828.7,5.00,0.00,25.7,25.2,00.0,34.6,27.6,06.2,0000.0,0007.58,0001.92,0001.38
2022-02-08 22:37:00,,0829.2,5.00,0.00,25.7,25.2,00.0,34.6,27.6,06.4,0000.0,0007.63,0001.93,0001.38
2022-02-08 22:38:00,,0829.3,5.02,0.00,25.7,25.2,00.0,34.6,27.6,06.4,0000.0,0008.07,0001.90,0001.37
2022-02-08 22:39:00,,0829.1,4.99,0.00,25.8,25.3,00.0,34.6,27.6,06.6,0000.0,0008.14,0001.94,0001.38
2022-02-08 22:40:00,,0828.9,5.00,0.00,25.8,25.3,00.0,34.6,27.7,06.6,0000.0,0008.33,0001.96,0001.40
2022-02-08 22:41:00,,0828.9,5.02,0.00,25.8,25.3,00.0,34.7,27.7,06.6,0000.0,0008.80,0001.98,0001.41
2022-02-08 22:42:00,,0829.1,4.99,0.00,25.8,25.3,00.0,34.7,27.7,06.7,0000.0,0008.20,0001.98,0001.42
2022-02-08 22:43:00,,0828.7,5.02,0.00,25.8,25.3,00.0,34.7,27.7,06.9,0000.0,0008.77,0002.02,0001.44
2022-02-08 22:44:00,,0828.8,4.99,0.00,25.8,25.4,00.0,34.7,27.7,06.7,0000.0,0009.66,0002.11,0001.47
2022-02-08 22:45:00,,0828.7,5.02,0.00,25.8,25.3,00.0,34.7,27.6,07.0,0000.0,0009.61,0002.19,0001.48
2022-02-08 22:46:00,,0828.7,4.99,0.00,25.8,25.3,00.0,34.7,27.6,06.8,0000.0,0010.24,0002.28,0001.50
2022-02-08 22:47:00,,0828.6,4.99,0.00,25.8,25.3,00.0,34.7,27.6,06.6,0000.0,0009.88,0002.33,0001.52
2022-02-08 22:48:00,,0828.8,5.02,0.00,25.8,25.3,00.0,34.7,27.6,06.6,0000.0,0009.97,0002.37,0001.55
2022-02-08 22:49:00,,0828.8,5.00,0.00,25.8,25.3,00.0,34.8,27.7,06.7,0000.0,0010.88,0002.44,0001.57
2022-02-08 22:50:00,,0829.1,5.02,0.00,25.8,25.3,00.0,34.8,27.7,06.9,0000.0,0010.92,0002.46,0001.58
2022-02-08 22:51:00,,0829.2,5.00,0.00,25.8,25.3,00.0,34.8,27.7,06.7,0000.0,0011.01,0002.51,0001.58
2022-02-08 22:52:00,,0829.1,5.00,0.00,25.9,25.3,00.0,34.8,27.7,06.8,0000.0,0010.63,0002.54,0001.58
2022-02-08 22:53:00,,0828.9,4.99,0.00,25.9,25.3,00.0,34.8,27.7,06.7,0000.0,0011.23,0002.58,0001.58
2022-02-08 22:54:00,,0828.7,5.02,0.00,25.9,25.3,00.0,34.8,27.7,06.5,0000.0,0011.62,0002.60,0001.59
2022-02-08 22:55:00,,0828.6,4.98,0.00,25.9,25.3,00.0,34.8,27.7,06.6,0000.0,0010.73,0002.57,0001.59
2022-02-08 22:56:00,,0828.6,5.01,0.00,25.9,25.4,00.0,34.8,27.7,06.7,0000.0,0010.22,0002.54,0001.58
2022-02-08 22:57:00,,0828.5,5.01,0.00,25.9,25.4,00.0,34.8,27.7,06.8,0000.0,0009.53,0002.57,0001.58
2022-02-08 22:58:00,,0828.6,4.99,0.00,25.9,25.3,00.0,34.8,27.7,06.9,0000.0,0009.21,0002.61,0001.59
2022-02-08 22:59:00,,0828.7,5.00,0.00,25.9,25.3,00.0,34.8,27.6,06.9,0000.0,0009.41,0002.63,0001.60
